Time,TemperatureF,DewpointF,PressureIn,WindDirection,WindDirectionDegrees,WindSpeedMPH,WindSpeedGustMPH,Humidity,HourlyPrecipIn,Conditions,Clouds,dailyrainin,SoftwareType,DateUTC
2013-03-01 00:01:00,25.0,23.0,29.39,NNE,29,0.0,0.0,92,0.00,,,0.05,,2013-03-01 09:01:00,
2013-03-01 00:11:00,25.0,23.0,29.39,NNE,29,0.0,0.0,92,0.00,,,0.05,,2013-03-01 09:11:00,
2013-03-01 00:21:00,24.0,22.0,29.39,NNE,29,0.0,0.0,92,0.00,,,0.05,,2013-03-01 09:21:00,
2013-03-01 00:31:00,23.0,21.0,29.41,NNE,29,0.0,0.0,93,0.00,,,0.05,,2013-03-01 09:31:00,
2013-03-01 00:41:00,23.0,21.0,29.41,NNE,29,0.0,0.0,93,0.00,,,0.05,,2013-03-01 09:41:00,
2013-03-01 00:52:00,23.0,21.0,29.41,NNE,29,0.0,0.0,93,0.00,,,0.05,,2013-03-01 09:52:00,
2013-03-01 01:01:00,23.0,21.0,29.41,NNE,29,0.0,0.0,92,0.00,,,0.05,,2013-03-01 10:01:00,
2013-03-01 01:11:00,23.0,21.0,29.41,NNE,29,0.0,0.0,92,0.00,,,0.05,,2013-03-01 10:11:00,
2013-03-01 01:21:00,22.0,20.0,29.41,NNE,29,0.0,1.0,93,0.00,,,0.05,,2013-03-01 10:21:00,
2013-03-01 01:31:00,22.0,20.0,29.42,NNE,29,0.0,1.0,93,0.00,,,0.05,,2013-03-01 10:31:00,
2013-03-01 01:41:00,22.0,20.0,29.42,NNE,29,0.0,1.0,93,0.00,,,0.05,,2013-03-01 10:41:00,
2013-03-01 01:52:00,22.0,20.0,29.42,NNE,29,0.0,1.0,93,0.00,,,0.05,,2013-03-01 10:52:00,
2013-03-01 02:01:00,22.0,21.0,29.43,NNE,28,0.0,1.0,94,0.00,,,0.05,,2013-03-01 11:01:00,
2013-03-01 02:11:00,22.0,21.0,29.43,NNE,28,0.0,1.0,94,0.00,,,0.05,,2013-03-01 11:11:00,
2013-03-01 02:22:00,22.0,21.0,29.43,NNE,28,0.0,1.0,94,0.00,,,0.05,,2013-03-01 11:22:00,
2013-03-01 02:32:00,22.0,21.0,29.44,NNE,28,0.0,1.0,94,0.00,,,0.05,,2013-03-01 11:32:00,
2013-03-01 02:41:00,22.0,21.0,29.44,NNE,28,0.0,1.0,94,0.00,,,0.05,,2013-03-01 11:41:00,
2013-03-01 02:52:00,23.0,22.0,29.44,NNE,28,0.0,0.0,95,0.00,,,0.05,,2013-03-01 11:52:00,
2013-03-01 03:01:00,23.0,22.0,29.45,SE,146,0.0,3.0,95,0.00,,,0.05,,2013-03-01 12:01:00,
2013-03-01 03:11:00,23.0,22.0,29.45,SE,146,0.0,3.0,95,0.00,,,0.05,,2013-03-01 12:11:00,
2013-03-01 03:21:00,24.0,23.0,29.45,SE,146,0.0,1.0,95,0.00,,,0.05,,2013-03-01 12:21:00,
2013-03-01 03:32:00,24.0,23.0,29.45,SE,146,0.0,1.0,95,0.00,,,0.05,,2013-03-01 12:32:00,
2013-03-01 03:41:00,24.0,23.0,29.45,SE,146,0.0,1.0,95,0.00,,,0.05,,2013-03-01 12:41:00,
2013-03-01 03:52:00,24.0,23.0,29.46,SE,146,0.0,1.0,95,0.00,,,0.05,,2013-03-01 12:52:00,
2013-03-01 04:01:00,25.0,24.0,29.46,SE,146,0.0,0.0,95,0.00,,,0.05,,2013-03-01 13:01:00,
2013-03-01 04:11:00,25.0,24.0,29.46,SE,146,0.0,0.0,95,0.00,,,0.05,,2013-03-01 13:11:00,
2013-03-01 04:21:00,25.0,24.0,29.47,SE,146,0.0,1.0,95,0.00,,,0.05,,2013-03-01 13:21:00,
2013-03-01 04:32:00,25.0,24.0,29.47,SE,146,0.0,0.0,95,0.00,,,0.05,,2013-03-01 13:32:00,
2013-03-01 04:41:00,25.0,24.0,29.47,SE,146,0.0,0.0,95,0.00,,,0.05,,2013-03-01 13:41:00,
2013-03-01 04:51:00,25.0,24.0,29.47,SE,146,0.0,0.0,95,0.00,,,0.05,,2013-03-01 13:51:00,
2013-03-01 05:01:00,25.0,24.0,29.48,SE,146,0.0,0.0,95,0.00,,,0.05,,2013-03-01 14:01:00,
2013-03-01 05:11:00,25.0,24.0,29.48,SE,146,0.0,0.0,95,0.00,,,0.05,,2013-03-01 14:11:00,
2013-03-01 05:21:00,25.0,24.0,29.48,SE,146,0.0,0.0,95,0.00,,,0.05,,2013-03-01 14:21:00,
2013-03-01 05:32:00,25.0,24.0,29.49,SE,146,0.0,2.0,95,0.00,,,0.05,,2013-03-01 14:32:00,
2013-03-01 05:41:00,25.0,24.0,29.49,SE,146,0.0,2.0,95,0.00,,,0.05,,2013-03-01 14:41:00,
2013-03-01 05:52:00,25.0,24.0,29.49,SE,146,0.0,2.0,95,0.00,,,0.05,,2013-03-01 14:52:00,
2013-03-01 06:01:00,26.0,25.0,29.50,SE,146,0.0,2.0,95,0.00,,,0.05,,2013-03-01 15:01:00,
2013-03-01 06:11:00,26.0,25.0,29.50,South,171,1.0,5.0,96,0.00,,,0.05,,2013-03-01 15:11:00,
2013-03-01 06:21:00,26.0,25.0,29.50,South,171,1.0,5.0,96,0.00,,,0.05,,2013-03-01 15:21:00,
2013-03-01 06:31:00,27.0,26.0,29.51,South,171,1.0,3.0,96,0.00,,,0.05,,2013-03-01 15:31:00,
2013-03-01 06:42:00,27.0,26.0,29.51,South,171,1.0,3.0,96,0.00,,,0.05,,2013-03-01 15:42:00,
2013-03-01 06:51:00,28.0,27.0,29.51,SSW,192,2.0,5.0,96,0.00,,,0.05,,2013-03-01 15:51:00,
2013-03-01 07:01:00,28.0,27.0,29.52,SSW,192,0.0,2.0,95,0.00,,,0.05,,2013-03-01 16:01:00,
2013-03-01 07:11:00,28.0,27.0,29.52,SSW,192,0.0,2.0,95,0.00,,,0.05,,2013-03-01 16:11:00,
2013-03-01 07:21:00,28.0,27.0,29.53,SSW,192,0.0,2.0,95,0.00,,,0.05,,2013-03-01 16:21:00,
2013-03-01 07:31:00,28.0,27.0,29.53,SSW,192,1.0,3.0,95,0.00,,,0.05,,2013-03-01 16:31:00,
2013-03-01 07:41:00,28.0,27.0,29.53,SSW,192,1.0,3.0,95,0.00,,,0.05,,2013-03-01 16:41:00,
2013-03-01 07:51:00,28.0,27.0,29.54,SSW,192,1.0,3.0,95,0.00,,,0.05,,2013-03-01 16:51:00,
2013-03-01 08:01:00,28.0,27.0,29.54,SSW,192,1.0,3.0,95,0.00,,,0.05,,2013-03-01 17:01:00,
2013-03-01 08:11:00,28.0,27.0,29.54,SSW,192,1.0,3.0,95,0.00,,,0.05,,2013-03-01 17:11:00,
2013-03-01 08:21:00,29.0,28.0,29.55,SSW,192,0.0,3.0,95,0.00,,,0.05,,2013-03-01 17:21:00,
2013-03-01 08:31:00,29.0,28.0,29.56,South,173,1.0,3.0,95,0.00,,,0.05,,2013-03-01 17:31:00,
2013-03-01 08:41:00,29.0,28.0,29.56,South,173,1.0,3.0,95,0.00,,,0.05,,2013-03-01 17:41:00,
2013-03-01 08:52:00,29.0,28.0,29.56,South,173,0.0,3.0,95,0.00,,,0.05,,2013-03-01 17:52:00,
2013-03-01 09:01:00,29.0,28.0,29.56,SE,143,0.0,5.0,95,0.00,,,0.05,,2013-03-01 18:01:00,
2013-03-01 09:11:00,29.0,28.0,29.56,SE,143,0.0,5.0,95,0.00,,,0.05,,2013-03-01 18:11:00,
2013-03-01 09:21:00,30.0,29.0,29.57,SE,143,0.0,2.0,95,0.00,,,0.05,,2013-03-01 18:21:00,
2013-03-01 09:31:00,30.0,28.0,29.58,SE,144,0.0,3.0,94,0.00,,,0.05,,2013-03-01 18:31:00,
2013-03-01 09:41:00,30.0,28.0,29.58,SE,144,0.0,3.0,94,0.00,,,0.05,,2013-03-01 18:41:00,
2013-03-01 09:52:00,30.0,28.0,29.58,SE,144,0.0,3.0,94,0.00,,,0.05,,2013-03-01 18:52:00,
2013-03-01 10:01:00,31.0,29.0,29.59,SE,144,0.0,3.0,94,0.00,,,0.05,,2013-03-01 19:01:00,
2013-03-01 10:11:00,31.0,29.0,29.59,SE,144,0.0,3.0,94,0.00,,,0.05,,2013-03-01 19:11:00,
2013-03-01 10:21:00,31.0,29.0,29.60,South,180,2.0,6.0,94,0.00,,,0.05,,2013-03-01 19:21:00,
2013-03-01 10:31:00,32.0,30.0,29.61,South,182,1.0,7.0,93,0.00,,,0.05,,2013-03-01 19:31:00,
2013-03-01 10:41:00,32.0,30.0,29.61,South,182,1.0,7.0,93,0.00,,,0.05,,2013-03-01 19:41:00,
2013-03-01 10:51:00,32.0,30.0,29.62,SSE,153,0.0,5.0,92,0.00,,,0.05,,2013-03-01 19:51:00,
2013-03-01 11:01:00,33.0,31.0,29.63,SE,146,2.0,7.0,91,0.00,,,0.05,,2013-03-01 20:01:00,
2013-03-01 11:11:00,33.0,31.0,29.63,SE,146,2.0,7.0,91,0.00,,,0.05,,2013-03-01 20:11:00,
2013-03-01 11:21:00,34.0,31.0,29.63,SSE,168,2.0,6.0,90,0.00,,,0.05,,2013-03-01 20:21:00,
2013-03-01 11:31:00,36.0,33.0,29.64,SSE,157,2.0,6.0,87,0.00,,,0.05,,2013-03-01 20:31:00,
2013-03-01 11:41:00,36.0,33.0,29.64,SSE,157,2.0,6.0,87,0.00,,,0.05,,2013-03-01 20:41:00,
2013-03-01 11:52:00,36.0,32.0,29.65,SSW,192,2.0,5.0,85,0.00,,,0.05,,2013-03-01 20:52:00,
2013-03-01 12:01:00,36.0,32.0,29.66,SSE,165,1.0,5.0,84,0.00,,,0.05,,2013-03-01 21:01:00,
2013-03-01 12:11:00,36.0,31.0,29.67,South,190,3.0,5.0,83,0.00,,,0.05,,2013-03-01 21:11:00,
2013-03-01 12:21:00,36.0,31.0,29.67,South,190,3.0,5.0,83,0.00,,,0.05,,2013-03-01 21:21:00,
2013-03-01 12:31:00,36.0,31.0,29.68,South,178,1.0,5.0,83,0.00,,,0.05,,2013-03-01 21:31:00,
2013-03-01 12:41:00,36.0,31.0,29.68,South,178,1.0,5.0,83,0.00,,,0.05,,2013-03-01 21:41:00,
2013-03-01 12:51:00,36.0,31.0,29.69,WSW,246,2.0,6.0,83,0.00,,,0.05,,2013-03-01 21:51:00,
2013-03-01 13:01:00,36.0,31.0,29.69,SW,215,2.0,5.0,83,0.01,,,0.06,,2013-03-01 22:01:00,
2013-03-01 13:11:00,35.0,30.0,29.70,SSW,201,3.0,6.0,83,0.02,,,0.07,,2013-03-01 22:11:00,
2013-03-01 13:21:00,35.0,30.0,29.70,SSW,201,3.0,6.0,83,0.02,,,0.07,,2013-03-01 22:21:00,
2013-03-01 13:31:00,35.0,31.0,29.71,SSW,210,1.0,6.0,84,0.02,,,0.07,,2013-03-01 22:31:00,
2013-03-01 13:41:00,35.0,31.0,29.71,SSW,210,1.0,6.0,84,0.02,,,0.07,,2013-03-01 22:41:00,
2013-03-01 13:51:00,35.0,31.0,29.71,South,179,3.0,6.0,84,0.02,,,0.07,,2013-03-01 22:51:00,
2013-03-01 14:01:00,34.0,30.0,29.72,SW,217,2.0,5.0,85,0.02,,,0.07,,2013-03-01 23:01:00,
2013-03-01 14:11:00,34.0,30.0,29.72,SW,217,2.0,5.0,85,0.02,,,0.07,,2013-03-01 23:11:00,
2013-03-01 14:21:00,34.0,30.0,29.72,SSW,196,2.0,6.0,86,0.02,,,0.08,,2013-03-01 23:21:00,
2013-03-01 14:31:00,34.0,31.0,29.73,SW,227,0.0,3.0,87,0.02,,,0.08,,2013-03-01 23:31:00,
2013-03-01 14:41:00,34.0,31.0,29.73,SW,227,0.0,3.0,87,0.02,,,0.08,,2013-03-01 23:41:00,
2013-03-01 14:52:00,34.0,31.0,29.73,SW,215,1.0,3.0,87,0.02,,,0.08,,2013-03-01 23:52:00,
2013-03-01 15:01:00,34.0,31.0,29.74,South,186,1.0,7.0,87,0.02,,,0.08,,2013-03-02 00:01:00,
2013-03-01 15:11:00,34.0,31.0,29.74,South,186,1.0,7.0,87,0.02,,,0.08,,2013-03-02 00:11:00,
2013-03-01 15:21:00,34.0,31.0,29.74,West,263,2.0,6.0,88,0.02,,,0.09,,2013-03-02 00:21:00,
2013-03-01 15:31:00,33.0,30.0,29.75,SW,219,1.0,3.0,88,0.02,,,0.08,,2013-03-02 00:31:00,
2013-03-01 15:41:00,33.0,30.0,29.75,SW,219,1.0,3.0,88,0.02,,,0.08,,2013-03-02 00:41:00,
2013-03-01 15:52:00,33.0,30.0,29.75,WSW,238,1.0,3.0,89,0.01,,,0.08,,2013-03-02 00:52:00,
2013-03-01 16:01:00,33.0,30.0,29.76,SW,225,0.0,3.0,90,0.02,,,0.09,,2013-03-02 01:01:00,
2013-03-01 16:11:00,33.0,30.0,29.76,SW,225,0.0,3.0,90,0.02,,,0.09,,2013-03-02 01:11:00,
2013-03-01 16:21:00,33.0,31.0,29.77,SW,223,1.0,3.0,91,0.01,,,0.09,,2013-03-02 01:21:00,
2013-03-01 16:31:00,32.0,30.0,29.77,SSW,199,0.0,6.0,91,0.01,,,0.08,,2013-03-02 01:31:00,
2013-03-01 16:41:00,32.0,30.0,29.77,SSW,199,0.0,6.0,91,0.01,,,0.08,,2013-03-02 01:41:00,
2013-03-01 16:51:00,32.0,30.0,29.78,SSW,200,1.0,3.0,91,0.01,,,0.08,,2013-03-02 01:51:00,
2013-03-01 17:01:00,32.0,30.0,29.78,SSW,200,0.0,3.0,92,0.01,,,0.09,,2013-03-02 02:01:00,
2013-03-01 17:11:00,32.0,30.0,29.78,SSW,200,0.0,3.0,92,0.01,,,0.09,,2013-03-02 02:11:00,
2013-03-01 17:21:00,32.0,30.0,29.79,SSW,201,1.0,3.0,92,0.01,,,0.09,,2013-03-02 02:21:00,
2013-03-01 17:31:00,32.0,30.0,29.79,SSW,200,0.0,3.0,93,0.01,,,0.09,,2013-03-02 02:31:00,
2013-03-01 17:41:00,32.0,30.0,29.79,SSW,200,0.0,3.0,93,0.01,,,0.09,,2013-03-02 02:41:00,
2013-03-01 17:52:00,31.0,29.0,29.80,SSW,200,0.0,2.0,93,0.01,,,0.08,,2013-03-02 02:52:00,
2013-03-01 18:01:00,31.0,29.0,29.80,WSW,237,0.0,3.0,94,0.01,,,0.09,,2013-03-02 03:01:00,
2013-03-01 18:11:00,31.0,29.0,29.80,WSW,237,0.0,3.0,94,0.01,,,0.09,,2013-03-02 03:11:00,
2013-03-01 18:21:00,31.0,29.0,29.80,WSW,238,0.0,3.0,94,0.01,,,0.09,,2013-03-02 03:21:00,
2013-03-01 18:32:00,31.0,29.0,29.82,WSW,248,0.0,3.0,94,0.02,,,0.10,,2013-03-02 03:32:00,
2013-03-01 18:41:00,31.0,29.0,29.82,WSW,248,0.0,3.0,94,0.02,,,0.10,,2013-03-02 03:41:00,
2013-03-01 18:52:00,31.0,29.0,29.82,SW,229,0.0,3.0,94,0.02,,,0.10,,2013-03-02 03:52:00,
2013-03-01 19:01:00,31.0,30.0,29.83,SW,223,0.0,3.0,95,0.01,,,0.10,,2013-03-02 04:01:00,
2013-03-01 19:11:00,31.0,30.0,29.83,SW,223,0.0,3.0,95,0.01,,,0.10,,2013-03-02 04:11:00,
2013-03-01 19:21:00,31.0,30.0,29.83,SW,223,0.0,2.0,95,0.01,,,0.10,,2013-03-02 04:21:00,
2013-03-01 19:31:00,31.0,30.0,29.84,SW,223,0.0,2.0,95,0.00,,,0.10,,2013-03-02 04:31:00,
2013-03-01 19:41:00,31.0,30.0,29.84,SW,223,0.0,2.0,95,0.00,,,0.10,,2013-03-02 04:41:00,
2013-03-01 19:51:00,30.0,29.0,29.84,SW,223,0.0,1.0,95,0.00,,,0.10,,2013-03-02 04:51:00,
2013-03-01 20:01:00,30.0,29.0,29.85,SW,223,0.0,1.0,95,0.01,,,0.11,,2013-03-02 05:01:00,
2013-03-01 20:12:00,30.0,29.0,29.85,SW,223,0.0,1.0,95,0.01,,,0.11,,2013-03-02 05:12:00,
2013-03-01 20:22:00,30.0,29.0,29.85,SW,223,0.0,1.0,95,0.01,,,0.11,,2013-03-02 05:22:00,
2013-03-01 20:31:00,30.0,29.0,29.86,WSW,252,0.0,5.0,96,0.02,,,0.12,,2013-03-02 05:31:00,
2013-03-01 20:41:00,30.0,29.0,29.86,WSW,252,0.0,5.0,96,0.02,,,0.12,,2013-03-02 05:41:00,
2013-03-01 20:52:00,30.0,29.0,29.86,WSW,250,0.0,3.0,96,0.02,,,0.12,,2013-03-02 05:52:00,
2013-03-01 21:01:00,30.0,29.0,29.87,WSW,250,0.0,2.0,95,0.01,,,0.12,,2013-03-02 06:01:00,
2013-03-01 21:11:00,30.0,29.0,29.87,WSW,250,0.0,2.0,95,0.01,,,0.12,,2013-03-02 06:11:00,
2013-03-01 21:21:00,30.0,29.0,29.88,WSW,250,0.0,2.0,95,0.01,,,0.12,,2013-03-02 06:21:00,
2013-03-01 21:31:00,30.0,29.0,29.88,WSW,250,0.0,1.0,95,0.01,,,0.13,,2013-03-02 06:31:00,
2013-03-01 21:41:00,30.0,29.0,29.88,WSW,250,0.0,1.0,95,0.01,,,0.13,,2013-03-02 06:41:00,
2013-03-01 21:51:00,30.0,29.0,29.88,WSW,250,0.0,0.0,96,0.01,,,0.13,,2013-03-02 06:51:00,
2013-03-01 22:01:00,30.0,29.0,29.89,WSW,250,0.0,0.0,96,0.01,,,0.13,,2013-03-02 07:01:00,
2013-03-01 22:11:00,30.0,29.0,29.90,WSW,250,0.0,0.0,96,0.01,,,0.13,,2013-03-02 07:11:00,
2013-03-01 22:21:00,30.0,29.0,29.90,WSW,250,0.0,0.0,96,0.01,,,0.13,,2013-03-02 07:21:00,
2013-03-01 22:32:00,30.0,29.0,29.91,WSW,250,0.0,1.0,96,0.00,,,0.13,,2013-03-02 07:32:00,
2013-03-01 22:41:00,30.0,29.0,29.91,WSW,250,0.0,1.0,96,0.00,,,0.13,,2013-03-02 07:41:00,
2013-03-01 22:51:00,30.0,29.0,29.91,WSW,250,0.0,0.0,96,0.00,,,0.13,,2013-03-02 07:51:00,
2013-03-01 23:01:00,30.0,29.0,29.91,WSW,250,0.0,0.0,96,0.00,,,0.13,,2013-03-02 08:01:00,
2013-03-01 23:11:00,30.0,29.0,29.91,WSW,250,0.0,0.0,96,0.00,,,0.13,,2013-03-02 08:11:00,
2013-03-01 23:21:00,30.0,29.0,29.91,WSW,250,0.0,0.0,96,0.00,,,0.13,,2013-03-02 08:21:00,
2013-03-01 23:32:00,29.0,28.0,29.92,WSW,250,0.0,0.0,96,0.00,,,0.13,,2013-03-02 08:32:00,
2013-03-01 23:42:00,29.0,28.0,29.92,WSW,250,0.0,0.0,96,0.00,,,0.13,,2013-03-02 08:42:00,
2013-03-01 23:52:00,29.0,28.0,29.92,WSW,250,0.0,0.0,95,0.00,,,0.13,,2013-03-02 08:52:00,